[[{"header":{"parameterUnit":"m.s-1","parameterCategory":1,"la1":30.2992,"la2":30.254,"lo1":-89.0895,"lo2":-89.0443,"dy":0.0025,"dx":0.0025,"nx":19,"ny":19,"refTime":"2026-03-13T21:00:00:Z","depth":0,"parameterNumber":2,"parameterNumberName":"U-component_of_WINDS"},"data":[0,0,0,-0.4228,-0.4228,-0.4221,-0.422,-0.4212,-0.4212,0,0,0,0,0,0,0,0,0,0,0,-0.423,-0.423,-0.4228,-0.4228,-0.4221,-0.422,-0.4212,-0.4212,0,0,0,0,0,0,0,0,0,0,0,-0.423,-0.423,-0.4229,-0.4228,-0.4221,-0.422,-0.4212,-0.4217,0,0,0,0,0,0,0,0,0,0,-0.4224,-0.4225,-0.423,-0.4229,-0.4228,-0.4221,-0.422,-0.4218,-0.4217,-0.4215,0,-0.4213,0,-0.4212,-0.4211,-0.4211,0,0,0,-0.4228,-0.4226,-0.4224,-0.4229,-0.4228,-0.4221,-0.4224,-0.4217,-0.4217,-0.4215,-0.4213,-0.4213,-0.4212,-0.4211,-0.4211,-0.4199,-0.4199,0,0,-0.4228,-0.4228,-0.4225,-0.4224,-0.4224,-0.4224,-0.4224,-0.4217,-0.4215,-0.4213,-0.4212,-0.4212,-0.4211,-0.4211,-0.4199,-0.4199,0,0,0,-0.4229,-0.4228,-0.4227,-0.4224,-0.4223,-0.4224,-0.4223,-0.4215,-0.4215,-0.4212,-0.4212,-0.4211,-0.4211,-0.42,-0.4199,-0.4196,0,0,0,-0.423,-0.4229,-0.4227,-0.4227,-0.4223,-0.4219,-0.4222,-0.4216,-0.4215,-0.4212,-0.4211,-0.4211,-0.42,-0.42,-0.4196,-0.4194,0,0,0,-0.423,-0.4229,-0.4228,-0.4227,-0.4224,-0.4219,-0.4218,-0.4215,-0.4215,-0.4211,-0.4211,-0.42,-0.42,-0.4196,-0.4194,-0.4191,0,0,0,-0.4231,-0.4224,-0.4228,-0.422,-0.4224,-0.4217,-0.4218,-0.4213,-0.4209,-0.4211,-0.42,-0.4199,-0.4196,-0.4194,-0.4191,-0.4188,-0.4187,0,0,-0.4222,-0.4223,-0.4219,-0.4222,-0.4214,-0.4218,-0.4209,-0.4207,-0.4207,-0.4202,-0.4202,-0.4196,-0.4194,-0.4191,-0.418,-0.4179,0,0,0,-0.4216,-0.4213,-0.4211,-0.4207,-0.4205,-0.4204,-0.4203,-0.4202,-0.4198,-0.4204,-0.4194,-0.4193,-0.4191,-0.419,-0.4189,-0.4188,-0.4199,-0.4199,-0.4199,-0.4202,-0.4203,-0.4197,-0.4197,-0.4194,-0.4194,-0.4192,-0.4191,-0.4192,-0.419,-0.4188,-0.4181,-0.418,-0.4179,-0.4178,-0.4187,-0.4187,-0.4187,-0.4187,-0.419,-0.4186,-0.4189,-0.4183,-0.4185,-0.4181,-0.4181,-0.4182,-0.4179,-0.4182,-0.4181,-0.4184,-0.4178,-0.4177,-0.4187,-0.4187,-0.4187,-0.4187,-0.4187,-0.4181,-0.4179,-0.4179,-0.4176,-0.4173,-0.4174,-0.4171,-0.4173,-0.4174,-0.4173,-0.4172,-0.4172,-0.4172,-0.4172,-0.4172,-0.4172,-0.4172,-0.4172,-0.4172,-0.4172,-0.4172,-0.4169,-0.4167,-0.4166,-0.4165,-0.4166,-0.4165,-0.4165,-0.4166,-0.4166,-0.4169,-0.4177,-0.4179,-0.4172,-0.4172,-0.4172,-0.4172,-0.4172,-0.4158,-0.4162,-0.4158,-0.4157,-0.4156,-0.4154,-0.4157,-0.4155,-0.4155,-0.4154,-0.4157,-0.4163,-0.4164,-0.4165,-0.4166,-0.4156,-0.4156,-0.4156,-0.4156,-0.4151,-0.4152,-0.4149,-0.4147,-0.4146,-0.4149,-0.4145,-0.4146,-0.4148,-0.4148,-0.415,-0.4153,-0.4153,-0.4154,-0.4155,-0.4157,-0.4144,-0.4144,-0.4144,-0.4143,-0.4145,-0.414,-0.4142,-0.4142,-0.4142,-0.4139,-0.4139,-0.4141,-0.4144,-0.4149,-0.4149,-0.4153,-0.4155,-0.4156,-0.4158,-0.4161,0,0]},{"header":{"parameterUnit":"m.s-1","parameterCategory":1,"la1":30.2992,"la2":30.254,"lo1":-89.0895,"lo2":-89.0443,"dy":0.0025,"dx":0.0025,"nx":19,"ny":19,"refTime":"2026-03-13T21:00:00:Z","depth":0,"parameterNumber":3,"parameterNumberName":"V-component_of_WINDS"},"data":[0,0,0,1.8895,1.8894,1.8824,1.8824,1.8727,1.8726,0,0,0,0,0,0,0,0,0,0,0,1.8913,1.8912,1.8896,1.8894,1.8824,1.8824,1.8727,1.8726,0,0,0,0,0,0,0,0,0,0,0,1.8913,1.8912,1.8912,1.8894,1.8824,1.8824,1.8727,1.8782,0,0,0,0,0,0,0,0,0,0,1.8851,1.8865,1.8913,1.8912,1.8893,1.8824,1.8824,1.8785,1.8779,1.8756,0,1.8736,0,1.873,1.8719,1.8719,0,0,0,1.8895,1.887,1.8854,1.8911,1.8892,1.8824,1.8856,1.8782,1.8775,1.8748,1.8735,1.8731,1.8728,1.8719,1.8718,1.8583,1.8582,0,0,1.8899,1.8898,1.8859,1.885,1.8862,1.8858,1.8854,1.8778,1.8763,1.8734,1.8729,1.8726,1.8718,1.8717,1.8584,1.8583,0,0,0,1.8909,1.8901,1.8887,1.8853,1.8842,1.8856,1.8851,1.8766,1.8762,1.8728,1.8725,1.8717,1.8716,1.8584,1.8583,1.8546,0,0,0,1.8912,1.8907,1.8889,1.8887,1.8843,1.8803,1.8841,1.8767,1.8759,1.8726,1.8717,1.8715,1.8585,1.8584,1.8549,1.8528,0,0,0,1.8918,1.8908,1.8897,1.8887,1.8858,1.8805,1.8796,1.8765,1.8757,1.8719,1.8715,1.8586,1.8584,1.8552,1.8532,1.8491,0,0,0,1.8925,1.8864,1.8896,1.8827,1.8858,1.8783,1.8796,1.874,1.8704,1.8717,1.8585,1.8583,1.8552,1.8535,1.8494,1.8455,1.844,0,0,1.8848,1.8855,1.8815,1.8841,1.876,1.8794,1.8707,1.8674,1.8671,1.8612,1.8609,1.8548,1.8532,1.8492,1.8357,1.8344,0,0,0,1.879,1.876,1.8739,1.8705,1.868,1.8655,1.8636,1.8624,1.8574,1.8641,1.8524,1.8514,1.849,1.8472,1.8461,1.844,1.8576,1.8576,1.8576,1.8676,1.8677,1.861,1.8602,1.8569,1.8551,1.8523,1.8503,1.8513,1.8485,1.8466,1.8385,1.8363,1.8355,1.8333,1.8448,1.8448,1.8448,1.8448,1.8561,1.8519,1.8535,1.8475,1.8476,1.8425,1.8405,1.8414,1.8366,1.8399,1.8377,1.8411,1.8342,1.8322,1.8445,1.8445,1.8446,1.8446,1.8446,1.8485,1.8465,1.8453,1.8404,1.8366,1.836,1.8314,1.8316,1.8318,1.8298,1.8278,1.8278,1.8277,1.8289,1.8288,1.8288,1.8288,1.8288,1.8288,1.841,1.8397,1.8358,1.8327,1.8306,1.8278,1.826,1.8238,1.8215,1.822,1.822,1.8231,1.8336,1.8361,1.8283,1.8284,1.8284,1.8285,1.8285,1.8288,1.8317,1.8256,1.8235,1.8199,1.816,1.8166,1.8121,1.8104,1.8081,1.8098,1.8176,1.8182,1.8191,1.8211,1.8099,1.8099,1.8099,1.8099,1.8222,1.8227,1.8166,1.8132,1.8099,1.8098,1.8028,1.8013,1.8002,1.7991,1.8009,1.8037,1.8046,1.8047,1.8059,1.8078,1.7934,1.7934,1.7934,1.8146,1.8149,1.8089,1.8081,1.8053,1.8028,1.7962,1.7921,1.7915,1.7927,1.7982,1.7989,1.8035,1.8051,1.8061,1.8079,1.8114,0,0]}]]